Home   Weather   Liège   Past weeks

Flag for Belgium Past Weather in Liège, Belgium — Yesterday and Last 2 Weeks

Now
45 °F

Clear.


Feels Like: 38 °F
Forecast: 40 / 47 °F
Wind: 15 mph from South

Location: Bierset

Current Time: Dec 7, 2016 at 11:19:56 pm

Latest Report: Dec 7, 2016 at 10:50 pm


Visibility: 10 mi

Pressure: 30.45 "Hg

Humidity: 61%

Dew Point: 32 °F

Location of LiègeLocation

Past Weather in Liège — Graph

°F

Liège Temperature Yesterday

Maximum temperature yesterday: 50 °F (at 2:20 pm)
Minimum temperature yesterday: 32 °F (at 8:20 am)
Average temperature yesterday: 40 °F

High & Low Weather Summary for the Past Weeks

 TemperatureHumidityPressure
High61 °F (Nov 23, 1:20 pm)100% (Nov 23, 6:50 am)30.54 "Hg (Nov 23, 6:50 am)
Low25 °F (Nov 29, 4:20 am)45% (Nov 30, 1:20 pm)29.95 "Hg (Nov 22, 9:20 pm)
Average39 °F79%30.26 "Hg
* Reported Nov 22 9:20 pm — Dec 7 9:50 pm, Liège, Weather by CustomWeather, © 2016

Note: Actual official high and low records may vary slightly from our data, if they occured in-between our weather recording intervals... More about our weather records

Advertising

Liège Weather History for the Previous 24 Hours

Scroll right to see more
 ConditionsComfort  
Time TempWeatherWind HumidityBarometerVisibility
9:50 pm
Wed, Dec 7
46 °FClear.12 mph57%30.45 "Hg10 mi
9:20 pm46 °FClear.12 mph57%30.45 "Hg10 mi
8:50 pm46 °FClear.12 mph57%30.45 "Hg10 mi
8:20 pm48 °FClear.14 mph54%30.45 "Hg10 mi
7:50 pm48 °FClear.14 mph54%30.45 "Hg10 mi
7:20 pm48 °FClear.13 mph58%30.45 "Hg10 mi
6:50 pm48 °FClear.13 mph58%30.45 "Hg10 mi
6:20 pm48 °FClear.13 mph58%30.45 "Hg10 mi
5:50 pm48 °FClear.12 mph58%30.42 "Hg10 mi
5:20 pm48 °FClear.10 mph62%30.45 "Hg10 mi
4:50 pm48 °FClear.12 mph62%30.42 "Hg10 mi
4:20 pm48 °FSunny.13 mph62%30.42 "Hg10 mi
3:50 pm48 °FSunny.9 mph62%30.42 "Hg10 mi
2:50 pm50 °FSunny.12 mph58%30.42 "Hg10 mi
2:20 pm50 °FSunny.13 mph58%30.42 "Hg10 mi
1:50 pm50 °FSunny.12 mph58%30.42 "Hg10 mi
1:20 pm48 °FSunny.13 mph62%30.42 "Hg10 mi
12:50 pm48 °FSunny.15 mph58%30.45 "Hg10 mi
12:20 pm46 °FSunny.12 mph62%30.45 "Hg10 mi
11:50 am46 °FSunny.10 mph62%30.45 "Hg10 mi
11:20 am46 °FSunny.10 mph62%30.45 "Hg10 mi
10:50 am45 °FSunny.13 mph66%30.48 "Hg10 mi
10:20 am43 °FSunny.12 mph71%30.45 "Hg10 mi
9:50 am43 °FSunny.10 mph71%30.45 "Hg10 mi
9:20 am43 °FSunny.8 mph71%30.45 "Hg10 mi
8:50 am43 °FSunny.8 mph71%30.45 "Hg10 mi
8:20 am41 °FClear.9 mph76%30.42 "Hg10 mi
7:50 am41 °FClear.9 mph76%30.42 "Hg10 mi
7:20 am41 °FPassing clouds.10 mph76%30.42 "HgN/A
6:50 am41 °FClear.10 mph70%30.42 "Hg10 mi
6:20 am41 °FClear.10 mph70%30.42 "Hg10 mi
5:50 am41 °FClear.10 mph70%30.42 "Hg10 mi
5:20 am41 °FClear.9 mph76%30.45 "Hg10 mi
4:50 am43 °FClear.9 mph71%30.45 "Hg10 mi
4:20 am43 °FClear.9 mph66%30.45 "Hg10 mi
3:50 am41 °FClear.8 mph76%30.45 "Hg10 mi
3:20 am43 °FPassing clouds.8 mph71%30.45 "HgN/A
2:50 am41 °FClear.10 mph76%30.45 "Hg10 mi
2:20 am41 °FClear.10 mph76%30.45 "Hg10 mi
1:50 am41 °FClear.10 mph76%30.45 "Hg10 mi
1:20 am41 °FClear.10 mph76%30.45 "Hg10 mi
12:50 am41 °FPassing clouds.8 mph76%30.45 "HgN/A
12:20 am41 °FPassing clouds.7 mph76%30.45 "HgN/A
11:50 pm
Tue, Dec 6
41 °FPassing clouds.9 mph76%30.45 "HgN/A
11:20 pm41 °FPassing clouds.7 mph70%30.45 "HgN/A
Weather by CustomWeather, © 2016

See weather overviewHow to use our weather pages